Regional Weather Roundup
Issued by NWS

Home | Current Version | Previous Version | Text Only | Print | Product List | Glossary On
Versions: 1 2 3 4 5 6 7 8 9 10 11 12 13 14 15 16 17 18 19 20 21 22 23 24 25 26 27 28 29 30 31 32 33 34 35 36 37 38 39 40 41 42 43 44 45 46 47 48 49 50
000
ASUS44 KMEG 251310
RWRTN
TENNESSEE HOURLY STATE WEATHER ROUNDUP
NATIONAL WEATHER SERVICE MEMPHIS TN
800 AM CDT SAT OCT 25 2014

TNZ002-004-019-021-049-052-054-088>092-251400-
WEST TENNESSEE

CITY           SKY/WX    TMP DP  RH WIND       PRES   REMARKS
MEMPHIS INTL   PTCLDY    58  54  86 CALM      30.10R
NWS MEMPHIS      N/A     54 N/A N/A MISG        N/A
JACKSON        CLEAR     55  52  89 S3        30.09S
DYERSBURG      CLEAR     52  43  71 CALM      30.09R
UNION CITY     PTCLDY    52  52 100 S3        30.05F
PARIS          MOCLDY    55  52  88 S5        30.07S
HUNTINGDON     CLOUDY    54  51  89 CALM      30.08S
LEXINGTON      MOCLDY    48  46  93 CALM      30.09R
SAVANNAH       CLOUDY    48  48 100 CALM      30.11R VSB 3/4
$$

TNZ008-025-027-028-033-062-065-066-251400-
NORTH MIDDLE TENNESSEE

CITY           SKY/WX    TMP DP  RH WIND       PRES   REMARKS
NASHVILLE      MOSUNNY   47  46  97 CALM      30.10S
CLARKSVILLE    MOCLDY    52  50  93 S3        30.07R FOG
SMYRNA         SUNNY     45  45 100 CALM      30.11S
COOKEVILLE     SUNNY     43  43 100 CALM      30.10S
CROSSVILLE     SUNNY     45  42  89 CALM      30.12R
$$

TNZ061-075-076-078-094-096-097-251400-
SOUTH MIDDLE TENNESSEE

CITY           SKY/WX    TMP DP  RH WIND       PRES   REMARKS
FAYETTEVILLE   SUNNY     46  43  87 MISG      30.12R
TULLAHOMA      SUNNY     43  39  87 CALM      30.12R
WINCHESTER     SUNNY     41  41 100 CALM      30.13R
MCMINNVILLE    SUNNY     43  43 100 CALM      30.11R
COLUMBIA       CLEAR    N/A N/A N/A CALM      30.09R
SHELBYVILLE    SUNNY     45  45 100 SE3       30.12R
$$

TNZ017-018-042-046-047-251400-
NORTHEAST TENNESSEE

CITY           SKY/WX    TMP DP  RH WIND       PRES   REMARKS
TRI CITIES     FOG       38  38 100 CALM      30.11S VSB 1/16
ELIZABETHTON   SUNNY     39  37  93 CALM      30.11S
$$

TNZ012-013-036-069-073-074-251400-
CENTRAL EAST TENNESSEE

CITY           SKY/WX    TMP DP  RH WIND       PRES   REMARKS
KNOXVILLE      MOSUNNY   44  41  89 CALM      30.10S
OAK RIDGE      FOG       42  41  96 CALM      30.13R VSB 1/4
GATLINBURG     SUNNY     37  37 100 CALM      30.10S
MORRISTOWN     CLOUDY    43  43 100 CALM      30.11R VSB 1/4
$$

TNZ083-085-099-251400-
SOUTHEAST TENNESSEE

CITY           SKY/WX    TMP DP  RH WIND       PRES   REMARKS
CHATTANOOGA    SUNNY     47  43  86 CALM      30.11S
$$

SKY/WX REPORTED AS FAIR MEANS FEW OR NO CLOUDS BELOW
12 THOUSAND FEET.




USA.gov is the U.S. government's official web portal to all federal, state and local government web resources and services.